TimePDT,TemperatureF,Dew PointF,Humidity,Sea Level PressureIn,VisibilityMPH,Wind Direction,Wind SpeedMPH,Gust SpeedMPH,PrecipitationIn,Events,Conditions,WindDirDegrees,DateUTC
12:23 AM,59.0,55.4,88,29.65,8.0,ESE,3.5,-,N/A,,Overcast,110,2013-09-21 07:23:00
12:53 AM,59.0,55.0,87,29.66,7.0,South,3.5,-,N/A,,Overcast,180,2013-09-21 07:53:00
1:23 AM,59.0,55.4,88,29.66,6.0,Calm,Calm,-,N/A,,Mostly Cloudy,0,2013-09-21 08:23:00
1:31 AM,57.2,53.6,88,29.65,7.0,Calm,Calm,-,N/A,,Overcast,0,2013-09-21 08:31:00
1:53 AM,57.0,54.0,89,29.66,8.0,Calm,Calm,-,N/A,,Mostly Cloudy,0,2013-09-21 08:53:00
2:01 AM,57.2,53.6,88,29.66,9.0,Calm,Calm,-,N/A,,Partly Cloudy,0,2013-09-21 09:01:00
2:09 AM,55.4,51.8,88,29.66,2.5,Calm,Calm,-,N/A,,Scattered Clouds,0,2013-09-21 09:09:00
2:15 AM,55.4,51.8,88,29.66,2.5,Calm,Calm,-,N/A,,Mostly Cloudy,0,2013-09-21 09:15:00
2:19 AM,55.4,51.8,88,29.66,1.2,Calm,Calm,-,N/A,,Mostly Cloudy,0,2013-09-21 09:19:00
2:41 AM,55.4,53.6,94,29.66,2.0,East,3.5,-,N/A,,Overcast,100,2013-09-21 09:41:00
2:48 AM,57.2,53.6,88,29.66,8.0,ESE,3.5,-,N/A,,Overcast,110,2013-09-21 09:48:00
2:53 AM,57.0,54.0,89,29.67,9.0,Calm,Calm,-,N/A,,Overcast,0,2013-09-21 09:53:00
3:40 AM,55.4,51.8,88,29.66,1.8,Calm,Calm,-,N/A,,Mostly Cloudy,0,2013-09-21 10:40:00
3:46 AM,55.4,51.8,88,29.66,2.5,Calm,Calm,-,N/A,,Scattered Clouds,0,2013-09-21 10:46:00
3:53 AM,55.0,52.0,89,29.66,2.0,Calm,Calm,-,N/A,,Partly Cloudy,0,2013-09-21 10:53:00
3:58 AM,53.6,51.8,94,29.66,1.2,Calm,Calm,-,N/A,,Partly Cloudy,0,2013-09-21 10:58:00
4:18 AM,53.6,51.8,94,29.66,1.5,Calm,Calm,-,N/A,,Mostly Cloudy,0,2013-09-21 11:18:00
4:25 AM,53.6,51.8,94,29.66,1.2,Calm,Calm,-,N/A,,Mostly Cloudy,0,2013-09-21 11:25:00
4:29 AM,55.4,51.8,88,29.66,2.0,Calm,Calm,-,N/A,,Mostly Cloudy,0,2013-09-21 11:29:00
4:37 AM,55.4,51.8,88,29.66,6.0,Calm,Calm,-,N/A,,Overcast,0,2013-09-21 11:37:00
4:53 AM,55.0,52.0,89,29.67,7.0,Calm,Calm,-,0.00,,Overcast,0,2013-09-21 11:53:00
5:24 AM,55.4,53.6,94,29.67,2.0,Calm,Calm,-,0.04,Rain,Heavy Rain,0,2013-09-21 12:24:00
5:31 AM,55.4,53.6,94,29.67,3.0,Calm,Calm,-,0.06,Rain,Rain,0,2013-09-21 12:31:00
5:53 AM,55.9,53.1,90,29.67,5.0,Calm,Calm,-,0.08,Rain,Light Rain,0,2013-09-21 12:53:00
6:53 AM,55.9,53.1,90,29.68,8.0,Calm,Calm,-,0.02,,Overcast,0,2013-09-21 13:53:00
7:02 AM,55.4,51.8,88,29.68,8.0,Calm,Calm,-,N/A,,Overcast,0,2013-09-21 14:02:00
7:20 AM,55.4,51.8,88,29.68,1.8,Calm,Calm,-,N/A,,Mostly Cloudy,0,2013-09-21 14:20:00
7:26 AM,55.4,51.8,88,29.68,0.8,Calm,Calm,-,N/A,,Mostly Cloudy,0,2013-09-21 14:26:00
7:35 AM,55.4,51.8,88,29.68,1.5,Calm,Calm,-,N/A,,Mostly Cloudy,0,2013-09-21 14:35:00
7:38 AM,55.4,51.8,88,29.68,4.0,Calm,Calm,-,N/A,,Mostly Cloudy,0,2013-09-21 14:38:00
7:53 AM,55.9,52.0,87,29.68,6.0,Calm,Calm,-,N/A,,Mostly Cloudy,0,2013-09-21 14:53:00
8:53 AM,57.9,55.0,90,29.69,9.0,East,3.5,-,N/A,,Partly Cloudy,100,2013-09-21 15:53:00
9:26 AM,59.0,55.4,88,29.69,9.0,ESE,3.5,-,N/A,,Scattered Clouds,110,2013-09-21 16:26:00
9:53 AM,61.0,55.9,83,29.70,9.0,East,3.5,-,N/A,,Partly Cloudy,90,2013-09-21 16:53:00
10:39 AM,64.4,55.4,73,29.70,8.0,Variable,3.5,-,N/A,,Mostly Cloudy,0,2013-09-21 17:39:00
10:53 AM,64.0,55.9,75,29.71,8.0,Variable,3.5,-,N/A,,Mostly Cloudy,0,2013-09-21 17:53:00
11:02 AM,64.4,57.2,77,29.70,8.0,South,6.9,-,N/A,,Mostly Cloudy,190,2013-09-21 18:02:00
11:38 AM,66.2,57.2,73,29.71,8.0,Variable,4.6,-,N/A,,Mostly Cloudy,0,2013-09-21 18:38:00
11:49 AM,66.2,57.2,73,29.71,8.0,South,4.6,-,N/A,,Mostly Cloudy,190,2013-09-21 18:49:00
11:53 AM,64.0,55.9,75,29.71,8.0,SSW,5.8,-,N/A,,Mostly Cloudy,200,2013-09-21 18:53:00
12:53 PM,66.0,55.0,68,29.72,8.0,SSW,9.2,-,N/A,,Clear,200,2013-09-21 19:53:00
1:53 PM,66.0,55.0,68,29.72,7.0,South,5.8,-,N/A,,Mostly Cloudy,180,2013-09-21 20:53:00
2:53 PM,64.9,55.0,70,29.71,8.0,WSW,8.1,-,N/A,,Mostly Cloudy,240,2013-09-21 21:53:00
3:26 PM,68.0,55.4,64,29.71,8.0,SSW,5.8,-,N/A,,Scattered Clouds,210,2013-09-21 22:26:00
3:53 PM,66.9,55.0,66,29.71,8.0,South,6.9,-,N/A,,Partly Cloudy,190,2013-09-21 22:53:00
4:53 PM,64.9,55.9,73,29.71,8.0,SSW,5.8,-,N/A,,Partly Cloudy,210,2013-09-21 23:53:00
5:53 PM,64.0,54.0,70,29.71,7.0,SSW,8.1,-,N/A,,Mostly Cloudy,210,2013-09-22 00:53:00
6:53 PM,62.1,55.0,78,29.70,7.0,Calm,Calm,-,N/A,,Partly Cloudy,0,2013-09-22 01:53:00
7:53 PM,59.0,55.0,87,29.70,7.0,Calm,Calm,-,N/A,,Scattered Clouds,0,2013-09-22 02:53:00
8:22 PM,60.8,55.4,82,29.70,7.0,Calm,Calm,-,N/A,,Overcast,0,2013-09-22 03:22:00
8:53 PM,60.1,55.0,83,29.70,7.0,Calm,Calm,-,N/A,,Overcast,0,2013-09-22 03:53:00
9:00 PM,60.8,55.4,82,29.70,7.0,Calm,Calm,-,N/A,,Overcast,0,2013-09-22 04:00:00
9:18 PM,59.0,55.4,88,29.70,6.0,Calm,Calm,-,0.00,Rain,Light Rain,0,2013-09-22 04:18:00
9:21 PM,59.0,55.4,88,29.70,2.5,South,4.6,-,0.00,Rain,Heavy Rain,180,2013-09-22 04:21:00
9:29 PM,57.2,55.4,94,29.70,1.8,Calm,Calm,-,0.09,Rain,Light Rain,0,2013-09-22 04:29:00
9:31 PM,59.0,53.6,82,29.70,3.0,Calm,Calm,-,0.09,Rain,Light Rain,0,2013-09-22 04:31:00
9:53 PM,59.0,55.0,87,29.70,8.0,Calm,Calm,-,0.09,,Overcast,0,2013-09-22 04:53:00
10:07 PM,59.0,55.4,88,29.69,8.0,Calm,Calm,-,N/A,,Overcast,0,2013-09-22 05:07:00
10:53 PM,57.9,55.0,90,29.69,4.0,Calm,Calm,-,0.01,Rain,Light Rain,0,2013-09-22 05:53:00
11:02 PM,57.2,53.6,88,29.69,6.0,SE,3.5,-,0.01,Rain,Light Rain,140,2013-09-22 06:02:00
11:14 PM,57.2,55.4,94,29.69,6.0,Calm,Calm,-,0.01,Rain,Light Rain,0,2013-09-22 06:14:00
11:21 PM,57.2,55.4,94,29.69,6.0,SW,3.5,-,0.01,Rain,Light Rain,220,2013-09-22 06:21:00
11:31 PM,57.2,55.4,94,29.68,5.0,Calm,Calm,-,0.02,Rain,Light Rain,0,2013-09-22 06:31:00
11:38 PM,57.2,55.4,94,29.68,6.0,SSE,5.8,-,0.02,Rain,Light Rain,150,2013-09-22 06:38:00
11:53 PM,57.9,54.0,87,29.68,5.0,SE,4.6,-,0.02,Rain,Light Rain,140,2013-09-22 06:53:00